Weather History for Beaufort MCAS, SC

Change the Weather History Date:

Wednesday, July 31, 2013

  Actual Average Record
Temperature  
Mean Temperature 82 °F -  
Max Temperature 91 °F 89 °F 100 °F (1941)
Min Temperature 73 °F 72 °F 64 °F (1936)
Cooling Degree Days 16    
Growing Degree Days 32 (Base 50)    
Moisture  
Dew Point 74 °F    
Average Humidity 87    
Maximum Humidity 94    
Minimum Humidity 59    
Precipitation  
Precipitation 1.50 in - - ()
Sea Level Pressure  
Sea Level Pressure 30.08 in    
Wind  
Wind Speed 3 mph (SW)    
Max Wind Speed 12 mph    
Max Gust Speed 24 mph    
Visibility 5 miles    
Events Fog , Rain , Thunderstorm    
Averages and records for this station are not official NWS values.
T = Trace of Precipitation, MM = Missing Value Source: NWS Daily Summary

Daily Weather History Graph

Daily Weather History Graph

Search for Another Location

Airport:

Trip Planner

Search our weather history database for the weather conditions in past years. The results will help you decide how hot, cold, wet, or windy it might be!

Date:

Astronomy

Jul. 31, 2013 Rise Set
Actual Time 6:36 AM EDT 8:21 PM EDT
Civil Twilight 6:09 AM EDT 8:48 PM EDT
Nautical Twilight 5:37 AM EDT 9:20 PM EDT
Astronomical Twilight 5:03 AM EDT 9:54 PM EDT
Moon 1:30 AM EDT (7/31) 3:35 PM EDT (7/31)
Length of Visible Light 14h 38m
Length of Day
13h 44m
Waning Crescent, 32% of the Moon is Illuminated
Jul 31
Waning Crescent
Aug 6
New
Aug 14
First Quarter
Aug 20
Full
Aug 28
Last Quarter

Hourly Weather History & Observations

Time (EDT) Temp. Heat Index Dew Point Humidity Pressure Visibility Wind Dir Wind Speed Gust Speed Precip Events Conditions
12:56 AM 79.0 °F - 75.9 °F 90% 30.13 in 7.0 mi Calm Calm - N/A   Clear
1:40 AM 78.1 °F - 75.0 °F 90% 30.13 in 1.5 mi Calm Calm - N/A   Clear
1:46 AM 77.0 °F - 73.9 °F 90% 30.13 in 0.8 mi Calm Calm - N/A   Clear
1:49 AM 77.0 °F - 75.0 °F 94% 30.13 in 1.2 mi Calm Calm - N/A   Clear
1:53 AM 77.0 °F - 75.2 °F 94% 30.12 in 3.0 mi Calm Calm - N/A   Clear
1:56 AM 77.0 °F - 75.0 °F 94% 30.13 in 4.0 mi Calm Calm - N/A   Clear
2:56 AM 78.1 °F - 75.9 °F 93% 30.11 in 6.0 mi Calm Calm - N/A   Clear
3:23 AM 75.9 °F - 73.9 °F 94% 30.10 in 1.8 mi Calm Calm - N/A   Clear
3:25 AM 75.9 °F - 73.9 °F 94% 30.10 in 1.0 mi Calm Calm - N/A   Clear
3:34 AM 77.0 °F - 73.9 °F 90% 30.10 in 2.0 mi Calm Calm - N/A   Clear
3:41 AM 78.1 °F - 75.0 °F 90% 30.10 in 7.0 mi Calm Calm - N/A   Clear
3:56 AM 77.0 °F - 73.9 °F 90% 30.11 in 7.0 mi WSW 3.5 mph - N/A   Clear
4:56 AM 77.0 °F - 73.0 °F 88% 30.11 in 8.0 mi Calm Calm - N/A   Scattered Clouds
5:56 AM 75.9 °F - 73.0 °F 91% 30.11 in 9.0 mi Calm Calm - N/A   Mostly Cloudy
6:56 AM 77.0 °F - 73.0 °F 88% 30.12 in 5.0 mi North - - N/A   Mostly Cloudy
7:56 AM 78.1 °F - 73.9 °F 87% 30.12 in 7.0 mi Calm Calm - N/A   Mostly Cloudy
8:56 AM 82.0 °F 87.4 °F 73.0 °F 74% 30.13 in 10.0 mi Calm Calm - N/A   Mostly Cloudy
9:56 AM 82.9 °F 88.8 °F 73.0 °F 72% 30.14 in 10.0 mi NNW 3.5 mph - N/A   Overcast
10:56 AM 84.0 °F 91.2 °F 73.9 °F 72% 30.13 in 10.0 mi Calm Calm - N/A   Mostly Cloudy
11:56 AM 87.1 °F 94.5 °F 73.0 °F 63% 30.13 in 10.0 mi Variable 3.5 mph - N/A   Mostly Cloudy
12:56 PM 88.0 °F 95.6 °F 73.0 °F 61% 30.11 in 10.0 mi SSE 3.5 mph - N/A   Mostly Cloudy
1:56 PM 90.0 °F 99.0 °F 73.9 °F 59% 30.08 in 10.0 mi South 5.8 mph - N/A   Mostly Cloudy
2:52 PM 87.8 °F 95.6 °F 73.4 °F 62% 30.04 in 10.0 mi South 5.8 mph - N/A Thunderstorm Thunderstorm
2:56 PM 87.1 °F 94.5 °F 73.0 °F 63% 30.04 in 10.0 mi South 6.9 mph - N/A Thunderstorm Thunderstorm
3:56 PM 84.0 °F 91.9 °F 75.0 °F 74% 30.03 in 10.0 mi SSE 6.9 mph - N/A Thunderstorm Thunderstorm
4:53 PM 80.6 °F 86.2 °F 75.2 °F 84% 30.05 in 2.0 mi SSW 5.8 mph - 0.02 in Rain , Thunderstorm Thunderstorms and Rain
4:56 PM 81.0 °F 87.3 °F 75.9 °F 85% 30.05 in 2.0 mi SSW 5.8 mph - 0.02 in Rain , Thunderstorm Thunderstorms and Rain
5:03 PM 80.1 °F 85.1 °F 75.0 °F 85% 30.05 in 2.0 mi SSW 4.6 mph - 0.01 in Rain , Thunderstorm Thunderstorms and Rain
5:27 PM 79.0 °F - 75.0 °F 88% 30.05 in 1.8 mi West 6.9 mph - 0.07 in Rain , Thunderstorm Heavy Rain
5:32 PM 78.1 °F - 75.9 °F 93% 30.05 in 1.8 mi West 9.2 mph - 0.09 in Rain , Thunderstorm Thunderstorms and Rain
5:39 PM 77.0 °F - 75.0 °F 94% 30.06 in 0.5 mi WSW 8.1 mph - 0.12 in Fog , Rain , Thunderstorm Heavy Thunderstorms and Rain
5:44 PM 75.9 °F - 73.9 °F 94% 30.07 in 0.5 mi WSW 10.4 mph 18.4 mph 0.17 in Fog , Rain , Thunderstorm Heavy Thunderstorms and Rain
5:53 PM 73.4 °F - 71.6 °F 94% 30.06 in 0.5 mi WSW 11.5 mph 24.2 mph 0.48 in Fog , Rain , Thunderstorm Heavy Thunderstorms and Rain
5:56 PM 75.0 °F - 72.0 °F 90% 30.07 in 0.5 mi SW 10.4 mph - 0.54 in Fog , Rain , Thunderstorm Heavy Thunderstorms and Rain
6:03 PM 75.0 °F - 73.0 °F 94% 30.07 in 0.5 mi SW 10.4 mph - 0.10 in Rain , Thunderstorm Heavy Thunderstorms and Rain
6:35 PM 75.0 °F - 73.0 °F 94% 30.06 in 0.5 mi SW 5.8 mph - 0.79 in Rain , Thunderstorm Heavy Thunderstorms and Rain
6:42 PM 75.0 °F - 73.0 °F 94% 30.06 in 2.0 mi SW 6.9 mph - 0.82 in Rain , Thunderstorm Heavy Thunderstorms and Rain
6:53 PM 75.0 °F - 73.0 °F 94% 30.06 in 3.0 mi SW 5.8 mph - 0.85 in Rain , Thunderstorm Rain
7:00 PM 75.0 °F - 73.0 °F 94% 30.06 in 1.8 mi SSW 6.9 mph - 0.02 in Rain , Thunderstorm Rain
7:15 PM 75.0 °F - 73.0 °F 94% 30.06 in 3.0 mi SSW 8.1 mph - 0.07 in Rain Rain
7:56 PM 75.0 °F - 73.0 °F 94% 30.06 in 7.0 mi SSW 6.9 mph - 0.09 in Rain Light Rain
8:56 PM 73.9 °F - 72.0 °F 93% 30.05 in 10.0 mi South 4.6 mph - 0.00 in   Mostly Cloudy
9:56 PM 75.0 °F - 73.0 °F 94% 30.05 in 10.0 mi Calm Calm - N/A   Mostly Cloudy
10:56 PM 75.0 °F - 73.0 °F 94% 30.05 in 10.0 mi SSW 3.5 mph - N/A   Overcast
11:56 PM 75.0 °F - 72.0 °F 90% 30.04 in 10.0 mi SSW 5.8 mph - N/A   Overcast